Météo par heure à Alimena

Ce jour, 30 Octobre, Vendredi

Heure Température Précipitation Vent Pression Humidité
00:00 +12°C° 0 mm 1 m/s 702 mmHg 77%
01:00 +12°C° 0 mm 1 m/s 702 mmHg 76%
02:00 +11°C° 0 mm 1 m/s 702 mmHg 78%
03:00 +11°C° 0 mm 1 m/s 702 mmHg 79%
04:00 +10°C° 0 mm 2 m/s 702 mmHg 81%
05:00 +10°C° 0 mm 2 m/s 702 mmHg 83%
06:00 +11°C° 0 mm 1 m/s 702 mmHg 85%
07:00 +11°C° 0 mm 1 m/s 702 mmHg 87%
08:00 +13°C° 0 mm 1 m/s 703 mmHg 79%
09:00 +15°C° 0 mm 1 m/s 703 mmHg 72%
10:00 +16°C° 0 mm 2 m/s 704 mmHg 65%
11:00 +18°C° 0 mm 1 m/s 704 mmHg 61%
12:00 +19°C° 0 mm 1 m/s 704 mmHg 58%
13:00 +20°C° 0 mm 1 m/s 704 mmHg 54%
14:00 +19°C° 0 mm 1 m/s 703 mmHg 57%
15:00 +18°C° 0 mm 2 m/s 703 mmHg 60%
16:00 +17°C° 0 mm 2 m/s 703 mmHg 62%
17:00 +16°C° 0 mm 2 m/s 703 mmHg 69%
18:00 +15°C° 0 mm 1 m/s 703 mmHg 75%
19:00 +13°C° 0 mm 1 m/s 703 mmHg 81%
20:00 +13°C° 0 mm 1 m/s 703 mmHg 82%
21:00 +13°C° 0 mm 1 m/s 703 mmHg 83%
22:00 +12°C° 0 mm 1 m/s 703 mmHg 84%
23:00 +12°C° 0 mm 1 m/s 703 mmHg 85%

Demain, 31 Octobre, Samedi

Heure Température Précipitation Vent Pression Humidité
00:00 +12°C° 0 mm 1 m/s 703 mmHg 86%
01:00 +12°C° 0 mm 1 m/s 703 mmHg 86%
02:00 +12°C° 0 mm 1 m/s 703 mmHg 86%
03:00 +11°C° 0 mm 1 m/s 703 mmHg 86%
04:00 +11°C° 0 mm 1 m/s 703 mmHg 86%
05:00 +11°C° 0 mm 1 m/s 703 mmHg 85%
06:00 +11°C° 0 mm 1 m/s 703 mmHg 85%
07:00 +10°C° 0 mm 0 m/s 703 mmHg 84%
08:00 +13°C° 0 mm 1 m/s 703 mmHg 77%
09:00 +15°C° 0 mm 1 m/s 704 mmHg 69%
10:00 +18°C° 0 mm 1 m/s 704 mmHg 62%
11:00 +19°C° 0 mm 1 m/s 704 mmHg 59%
12:00 +19°C° 0 mm 1 m/s 704 mmHg 56%
13:00 +20°C° 0 mm 1 m/s 704 mmHg 53%
14:00 +20°C° 0 mm 1 m/s 704 mmHg 55%
15:00 +20°C° 0 mm 1 m/s 703 mmHg 58%
16:00 +19°C° 0 mm 1 m/s 703 mmHg 61%
17:00 +18°C° 0 mm 1 m/s 703 mmHg 69%
18:00 +15°C° 0 mm 1 m/s 703 mmHg 78%
19:00 +14°C° 0 mm 1 m/s 703 mmHg 86%
20:00 +14°C° 0 mm 1 m/s 703 mmHg 87%
21:00 +12°C° 0 mm 0 m/s 703 mmHg 88%
22:00 +12°C° 0 mm 0 m/s 703 mmHg 89%
23:00 +12°C° 0 mm 0 m/s 703 mmHg 89%

Après-demain, 1 Novembre, Dimanche

Heure Température Précipitation Vent Pression Humidité
00:00 +12°C° 0 mm 0 m/s 702 mmHg 89%
01:00 +11°C° 0 mm 0 m/s 702 mmHg 89%
02:00 +11°C° 0 mm 0 m/s 702 mmHg 88%
03:00 +12°C° 0 mm 1 m/s 702 mmHg 87%
04:00 +12°C° 0 mm 1 m/s 702 mmHg 87%
05:00 +12°C° 0 mm 1 m/s 702 mmHg 86%
06:00 +12°C° 0 mm 1 m/s 702 mmHg 85%
07:00 +12°C° 0 mm 1 m/s 702 mmHg 83%
08:00 +14°C° 0 mm 1 m/s 703 mmHg 74%
09:00 +15°C° 0 mm 0 m/s 703 mmHg 65%
10:00 +17°C° 0 mm 0 m/s 704 mmHg 55%
11:00 +20°C° 0 mm 1 m/s 704 mmHg 52%
12:00 +21°C° 0 mm 1 m/s 704 mmHg 48%
13:00 +21°C° 0 mm 2 m/s 704 mmHg 44%
14:00 +20°C° 0 mm 2 m/s 704 mmHg 48%
15:00 +20°C° 0 mm 2 m/s 704 mmHg 51%
16:00 +19°C° 0 mm 2 m/s 703 mmHg 55%
17:00 +19°C° 0 mm 1 m/s 703 mmHg 64%
18:00 +16°C° 0 mm 1 m/s 703 mmHg 73%
19:00 +13°C° 0 mm 0 m/s 703 mmHg 82%
20:00 +13°C° 0 mm 0 m/s 703 mmHg 83%
21:00 +13°C° 0 mm 0 m/s 703 mmHg 84%
22:00 +13°C° 0 mm 0 m/s 703 mmHg 84%
23:00 +12°C° 0 mm 0 m/s 703 mmHg 85%

2 Novembre, Lundi

Heure Température Précipitation Vent Pression Humidité
00:00 +12°C° 0 mm 0 m/s 703 mmHg 85%
01:00 +12°C° 0 mm 0 m/s 703 mmHg 85%
02:00 +12°C° 0 mm 0 m/s 703 mmHg 86%
03:00 +12°C° 0 mm 1 m/s 703 mmHg 87%
04:00 +12°C° 0 mm 1 m/s 703 mmHg 88%
05:00 +12°C° 0 mm 1 m/s 703 mmHg 87%
06:00 +11°C° 0 mm 0 m/s 703 mmHg 86%
07:00 +11°C° 0 mm 0 m/s 703 mmHg 85%
08:00 +13°C° 0 mm 0 m/s 704 mmHg 76%
09:00 +16°C° 0 mm 1 m/s 704 mmHg 66%
10:00 +19°C° 0 mm 1 m/s 705 mmHg 57%
11:00 +20°C° 0 mm 1 m/s 705 mmHg 53%
12:00 +20°C° 0 mm 2 m/s 705 mmHg 48%
13:00 +21°C° 0 mm 2 m/s 705 mmHg 43%
14:00 +20°C° 0 mm 2 m/s 705 mmHg 48%
15:00 +20°C° 0 mm 2 m/s 704 mmHg 52%
16:00 +19°C° 0 mm 2 m/s 704 mmHg 57%
17:00 +18°C° 0 mm 1 m/s 704 mmHg 67%
18:00 +16°C° 0 mm 1 m/s 704 mmHg 76%
19:00 +14°C° 0 mm 1 m/s 704 mmHg 86%
20:00 +13°C° 0 mm 0 m/s 704 mmHg 87%
21:00 +12°C° 0 mm 0 m/s 704 mmHg 88%
22:00 +12°C° 0 mm 0 m/s 704 mmHg 90%
23:00 +12°C° 0 mm 0 m/s 703 mmHg 89%

3 Novembre, Mardi

Heure Température Précipitation Vent Pression Humidité
00:00 +12°C° 0 mm 0 m/s 703 mmHg 89%
01:00 +11°C° 0 mm 0 m/s 703 mmHg 88%
02:00 +12°C° 0 mm 1 m/s 703 mmHg 88%
03:00 +12°C° 0 mm 1 m/s 702 mmHg 88%
04:00 +12°C° 0 mm 1 m/s 702 mmHg 87%
05:00 +12°C° 0 mm 1 m/s 702 mmHg 86%
06:00 +11°C° 0 mm 1 m/s 702 mmHg 85%
07:00 +11°C° 0 mm 1 m/s 703 mmHg 85%
08:00 +13°C° 0 mm 1 m/s 703 mmHg 73%
09:00 +16°C° 0 mm 1 m/s 704 mmHg 62%
10:00 +17°C° 0 mm 0 m/s 704 mmHg 50%
11:00 +20°C° 0 mm 1 m/s 704 mmHg 46%
12:00 +21°C° 0 mm 1 m/s 704 mmHg 42%
13:00 +20°C° 0 mm 2 m/s 704 mmHg 37%
14:00 +20°C° 0 mm 2 m/s 704 mmHg 41%
15:00 +19°C° 0 mm 2 m/s 703 mmHg 45%
16:00 +19°C° 0 mm 2 m/s 703 mmHg 49%
17:00 +18°C° 0 mm 1 m/s 703 mmHg 59%
18:00 +15°C° 0 mm 1 m/s 703 mmHg 69%
19:00 +13°C° 0 mm 0 m/s 703 mmHg 79%
20:00 +12°C° 0 mm 0 m/s 703 mmHg 80%
21:00 +12°C° 0 mm 0 m/s 702 mmHg 81%
22:00 +12°C° 0 mm 0 m/s 702 mmHg 83%
23:00 +11°C° 0 mm 0 m/s 702 mmHg 83%

4 Novembre, Mercredi

Heure Température Précipitation Vent Pression Humidité
00:00 +11°C° 0 mm 0 m/s 702 mmHg 83%
01:00 +11°C° 0 mm 0 m/s 702 mmHg 83%
02:00 +11°C° 0 mm 0 m/s 702 mmHg 82%
03:00 +10°C° 0 mm 0 m/s 701 mmHg 81%
04:00 +10°C° 0 mm 0 m/s 701 mmHg 80%
05:00 +10°C° 0 mm 0 m/s 701 mmHg 79%
06:00 +10°C° 0 mm 0 m/s 701 mmHg 78%
07:00 +10°C° 0 mm 0 m/s 701 mmHg 76%
08:00 +12°C° 0 mm 0 m/s 702 mmHg 68%
09:00 +15°C° 0 mm 1 m/s 702 mmHg 61%
10:00 +18°C° 0 mm 1 m/s 703 mmHg 53%
11:00 +19°C° 0 mm 1 m/s 703 mmHg 48%
12:00 +18°C° 0 mm 2 m/s 703 mmHg 44%
13:00 +19°C° 0 mm 2 m/s 703 mmHg 39%
14:00 +19°C° 0 mm 2 m/s 702 mmHg 42%
15:00 +19°C° 0 mm 1 m/s 702 mmHg 45%
16:00 +19°C° 0 mm 1 m/s 702 mmHg 48%
17:00 +18°C° 0 mm 1 m/s 702 mmHg 56%
18:00 +15°C° 0 mm 1 m/s 702 mmHg 63%
19:00 +13°C° 0 mm 0 m/s 702 mmHg 71%
20:00 +12°C° 0 mm 0 m/s 702 mmHg 73%
21:00 +12°C° 0 mm 0 m/s 702 mmHg 75%
22:00 +13°C° 0 mm 1 m/s 702 mmHg 77%
23:00 +12°C° 0 mm 1 m/s 702 mmHg 79%
Voir plus

Nous avons besoin de votre consentement

Meteoprog et ses fournisseurs de services peuvent stocker et accéder à des données personnelles telles que des cookies, des identifiants d'appareils ou d'autres technologies similaires sur votre appareil et traiter ces données pour personnaliser le contenu et les publicités, ainsi que pour fournir des fonctionnalités de médias sociaux et analyser le trafic.

  • Stocker et/ou accéder à des informations sur votre appareil

    Des cookies, des identifiants d'appareils ou d'autres informations peuvent être stockés ou accessibles sur votre appareil aux fins indiquées ci-dessus.

  • Annonces et contenus personnalisés, mesure des annonces et des contenus, connaissance de l'audience et développement de produits

    Les annonces et le contenu peuvent être personnalisés en fonction d'un profil. D'autres données peuvent être ajoutées pour mieux personnaliser les annonces et le contenu. Les performances des publicités et du contenu peuvent être mesurées. Il est possible d'obtenir des informations sur le public qui a vu les publicités et le contenu. Ces données peuvent être utilisées pour développer ou améliorer l'expérience de l'utilisateur, les systèmes et les logiciels.

En cliquant sur "J'accepte", vous autorisez l'utilisation de cookies, des identifiants d'appareils, des balises web ou d'autres technologies similaires. Vos paramètres peuvent être modifiés dans le navigateur de votre appareil.

Dans certains cas, des intérêts légitimes peuvent être invoqués plutôt qu'un consentement. Vous pouvez en savoir plus à ce sujet dans notre Politique de confidentialité et de cookies.